Track METEOR 1-14 now! 10-day predictions METEOR 1-14 is classified as:
1 06392U 73015A 22147.87133884 -.00000086 00000-0 -57884-4 0 9996 2 06392 81.2378 286.2927 0047757 48.0117 312.5105 14.07640438524261